| time (UTC) | temp F | wind direction | speed MPH | gust MPH | rain 1hr in | rain 24hr in | rain mn in | humidity % | barometer mb |
| 20260905125029 | 65 | 3 | 1.0 | 4.0 | 0.00 | 0.00 | 0.00 | 34 | 1020.0 |
| 20260905124530 | 66 | 352 | 0.0 | 0.0 | 0.00 | 0.00 | 0.00 | 34 | 1020.0 |
| 20260905124029 | 67 | 345 | 6.0 | 7.0 | 0.00 | 0.00 | 0.00 | 32 | 1020.0 |
| 20260905123529 | 67 | 348 | 5.0 | 6.0 | 0.00 | 0.00 | 0.00 | 30 | 1020.0 |
| 20260905123029 | 68 | 322 | 4.0 | 6.0 | 0.00 | 0.00 | 0.00 | 28 | 1020.0 |
| 20260905122529 | 69 | 262 | 3.0 | 5.0 | 0.00 | 0.00 | 0.00 | 28 | 1020.0 |
| 20260905122029 | 69 | 92 | 2.0 | 4.0 | 0.00 | 0.00 | 0.00 | 27 | 1020.0 |
| 20260905121530 | 70 | 142 | 5.0 | 7.0 | 0.00 | 0.00 | 0.00 | 27 | 1020.0 |
| 20260905121030 | 70 | 18 | 3.0 | 5.0 | 0.00 | 0.00 | 0.00 | 26 | 1020.0 |
| 20260905120530 | 70 | 108 | 5.0 | 9.0 | 0.00 | 0.00 | 0.00 | 26 | 1019.0 |
| 20260905120030 | 70 | 164 | 7.0 | 11.0 | 0.00 | 0.00 | 0.00 | 25 | 1019.0 |
| 20260905115530 | 70 | 160 | 5.0 | 6.0 | 0.00 | 0.00 | 0.00 | 25 | 1019.0 |
| 20260905115029 | 70 | 136 | 7.0 | 10.0 | 0.00 | 0.00 | 0.00 | 26 | 1020.0 |
| 20260905114529 | 70 | 116 | 5.0 | 9.0 | 0.00 | 0.00 | 0.00 | 27 | 1020.0 |
| 20260905114031 | 71 | 148 | 4.0 | 7.0 | 0.00 | 0.00 | 0.00 | 27 | 1020.0 |
| 20260905113529 | 71 | 145 | 8.0 | 12.0 | 0.00 | 0.00 | 0.00 | 26 | 1020.0 |
| 20260905113029 | 71 | 144 | 5.0 | 11.0 | 0.00 | 0.00 | 0.00 | 26 | 1020.0 |
| 20260905112529 | 71 | 145 | 6.0 | 9.0 | 0.00 | 0.00 | 0.00 | 26 | 1019.0 |
| 20260905112030 | 70 | 124 | 4.0 | 6.0 | 0.00 | 0.00 | 0.00 | 28 | 1020.0 |
| 20260905111529 | 70 | 129 | 4.0 | 8.0 | 0.00 | 0.00 | 0.00 | 28 | 1020.0 |
| 20260905111029 | 70 | 157 | 3.0 | 5.0 | 0.00 | 0.00 | 0.00 | 29 | 1020.0 |
| 20260905110529 | 70 | 148 | 8.0 | 13.0 | 0.00 | 0.00 | 0.00 | 29 | 1020.0 |
| 20260905110029 | 70 | 140 | 8.0 | 10.0 | 0.00 | 0.00 | 0.00 | 29 | 1019.0 |
| 20260905105529 | 69 | 134 | 5.0 | 8.0 | 0.00 | 0.00 | 0.00 | 31 | 1019.0 |
| 20260905105029 | 69 | 167 | 2.0 | 3.0 | 0.00 | 0.00 | 0.00 | 32 | 1019.0 |
| 20260905104530 | 69 | 123 | 3.0 | 4.0 | 0.00 | 0.00 | 0.00 | 33 | 1020.0 |
| 20260905104029 | 69 | 355 | 1.0 | 4.0 | 0.00 | 0.00 | 0.00 | 33 | 1020.0 |
| 20260905103529 | 69 | 51 | 3.0 | 4.0 | 0.00 | 0.00 | 0.00 | 33 | 1020.0 |
| 20260905103029 | 69 | 121 | 4.0 | 4.0 | 0.00 | 0.00 | 0.00 | 33 | 1020.0 |
| 20260905102529 | 70 | 123 | 2.0 | 4.0 | 0.00 | 0.00 | 0.00 | 33 | 1020.0 |
| 20260905102029 | 70 | 153 | 6.0 | 10.0 | 0.00 | 0.00 | 0.00 | 33 | 1020.0 |
| 20260905101532 | 69 | 140 | 4.0 | 6.0 | 0.00 | 0.00 | 0.00 | 34 | 1020.0 |
| 20260905101029 | 70 | 117 | 5.0 | 9.0 | 0.00 | 0.00 | 0.00 | 34 | 1019.0 |
| 20260905100529 | 70 | 107 | 6.0 | 8.0 | 0.00 | 0.00 | 0.00 | 34 | 1019.0 |
| 20260905100029 | 70 | 114 | 5.0 | 9.0 | 0.00 | 0.00 | 0.00 | 34 | 1019.0 |
| 20260905095529 | 69 | 146 | 3.0 | 5.0 | 0.00 | 0.00 | 0.00 | 35 | 1019.0 |
| 20260905095029 | 69 | 128 | 4.0 | 8.0 | 0.00 | 0.00 | 0.00 | 35 | 1019.0 |
| 20260905094531 | 69 | 53 | 4.0 | 4.0 | 0.00 | 0.00 | 0.00 | 36 | 1019.0 |
| 20260905094029 | 69 | 130 | 4.0 | 7.0 | 0.00 | 0.00 | 0.00 | 35 | 1019.0 |
| 20260905093529 | 69 | 136 | 5.0 | 8.0 | 0.00 | 0.00 | 0.00 | 36 | 1019.0 |
| 20260905093030 | 69 | 144 | 4.0 | 6.0 | 0.00 | 0.00 | 0.00 | 36 | 1019.0 |
| 20260905092529 | 70 | 124 | 5.0 | 5.0 | 0.00 | 0.00 | 0.00 | 36 | 1019.0 |
| 20260905092029 | 70 | 151 | 4.0 | 7.0 | 0.00 | 0.00 | 0.00 | 36 | 1019.0 |
| 20260905091530 | 70 | 134 | 4.0 | 8.0 | 0.00 | 0.00 | 0.00 | 36 | 1019.0 |
| 20260905091029 | 69 | 138 | 9.0 | 11.0 | 0.00 | 0.00 | 0.00 | 36 | 1019.0 |
| 20260905090529 | 69 | 135 | 6.0 | 7.0 | 0.00 | 0.00 | 0.00 | 37 | 1019.0 |
| 20260905090029 | 69 | 98 | 3.0 | 6.0 | 0.00 | 0.00 | 0.00 | 37 | 1019.0 |
| 20260905085530 | 68 | 109 | 3.0 | 4.0 | 0.00 | 0.00 | 0.00 | 38 | 1019.0 |
| 20260905085030 | 68 | 42 | 4.0 | 6.0 | 0.00 | 0.00 | 0.00 | 38 | 1019.0 |
| 20260905084529 | 68 | 78 | 2.0 | 5.0 | 0.00 | 0.00 | 0.00 | 38 | 1019.0 |
| 20260905084029 | 68 | 69 | 3.0 | 4.0 | 0.00 | 0.00 | 0.00 | 39 | 1019.0 |
| 20260905083529 | 69 | 61 | 4.0 | 4.0 | 0.00 | 0.00 | 0.00 | 39 | 1019.0 |
| 20260905083029 | 70 | 72 | 2.0 | 4.0 | 0.00 | 0.00 | 0.00 | 39 | 1019.0 |
| 20260905082529 | 71 | 18 | 2.0 | 4.0 | 0.00 | 0.00 | 0.00 | 39 | 1019.0 |
| 20260905082029 | 71 | 360 | 0.0 | 0.0 | 0.00 | 0.00 | 0.00 | 37 | 1019.0 |
| 20260905081530 | 72 | 360 | 0.0 | 0.0 | 0.00 | 0.00 | 0.00 | 36 | 1019.0 |
| 20260905081029 | 72 | 146 | 8.0 | 12.0 | 0.00 | 0.00 | 0.00 | 35 | 1018.0 |
| 20260905080529 | 72 | 143 | 7.0 | 12.0 | 0.00 | 0.00 | 0.00 | 34 | 1018.0 |
| 20260905080029 | 72 | 140 | 3.0 | 4.0 | 0.00 | 0.00 | 0.00 | 34 | 1018.0 |
| 20260905075529 | 73 | 153 | 4.0 | 6.0 | 0.00 | 0.00 | 0.00 | 33 | 1018.0 |
| 20260905075029 | 73 | 143 | 1.0 | 3.0 | 0.00 | 0.00 | 0.00 | 33 | 1018.0 |
| 20260905074529 | 73 | 142 | 0.0 | 2.0 | 0.00 | 0.00 | 0.00 | 33 | 1018.0 |
| 20260905074029 | 73 | 161 | 2.0 | 4.0 | 0.00 | 0.00 | 0.00 | 32 | 1018.0 |
| 20260905073529 | 73 | 150 | 4.0 | 6.0 | 0.00 | 0.00 | 0.00 | 32 | 1018.0 |
| 20260905073030 | 73 | 174 | 7.0 | 8.0 | 0.00 | 0.00 | 0.00 | 32 | 1018.0 |
| 20260905072530 | 73 | 180 | 5.0 | 7.0 | 0.00 | 0.00 | 0.00 | 34 | 1018.0 |
| 20260905072029 | 72 | 154 | 8.0 | 12.0 | 0.00 | 0.00 | 0.00 | 34 | 1018.0 |
| 20260905071530 | 72 | 154 | 8.0 | 10.0 | 0.00 | 0.00 | 0.00 | 36 | 1018.0 |
| 20260905071029 | 72 | 113 | 4.0 | 6.0 | 0.00 | 0.00 | 0.00 | 37 | 1018.0 |
| 20260905070529 | 72 | 154 | 4.0 | 7.0 | 0.00 | 0.00 | 0.00 | 37 | 1018.0 |
| 20260905070030 | 72 | 145 | 5.0 | 5.0 | 0.00 | 0.00 | 0.00 | 37 | 1018.0 |
| 20260905065529 | 72 | 136 | 7.0 | 8.0 | 0.00 | 0.00 | 0.00 | 38 | 1018.0 |
| 20260905065030 | 72 | 124 | 5.0 | 7.0 | 0.00 | 0.00 | 0.00 | 37 | 1018.0 |
| 20260905064529 | 72 | 120 | 3.0 | 4.0 | 0.00 | 0.00 | 0.00 | 38 | 1018.0 |
| 20260905064029 | 73 | 104 | 4.0 | 4.0 | 0.00 | 0.00 | 0.00 | 37 | 1017.0 |
| 20260905063529 | 73 | 139 | 2.0 | 4.0 | 0.00 | 0.00 | 0.00 | 35 | 1017.0 |
| 20260905063029 | 73 | 147 | 6.0 | 9.0 | 0.00 | 0.00 | 0.00 | 34 | 1017.0 |
| 20260905062529 | 73 | 169 | 5.0 | 5.0 | 0.00 | 0.00 | 0.00 | 34 | 1017.0 |
| 20260905062029 | 74 | 75 | 1.0 | 4.0 | 0.00 | 0.00 | 0.00 | 33 | 1017.0 |
| 20260905061530 | 74 | 135 | 5.0 | 6.0 | 0.00 | 0.00 | 0.00 | 31 | 1017.0 |
| 20260905061029 | 75 | 72 | 0.0 | 1.0 | 0.00 | 0.00 | 0.00 | 30 | 1017.0 |
| 20260905060529 | 75 | 120 | 3.0 | 5.0 | 0.00 | 0.00 | 0.00 | 29 | 1017.0 |
| 20260905060029 | 75 | 150 | 4.0 | 5.0 | 0.00 | 0.00 | 0.00 | 29 | 1017.0 |
| 20260905055529 | 75 | 155 | 9.0 | 12.0 | 0.00 | 0.00 | 0.00 | 28 | 1017.0 |
| 20260905055029 | 76 | 151 | 5.0 | 8.0 | 0.00 | 0.00 | 0.00 | 28 | 1017.0 |
| 20260905054529 | 76 | 162 | 12.0 | 17.0 | 0.00 | 0.00 | 0.00 | 27 | 1017.0 |
| 20260905054030 | 76 | 119 | 7.0 | 10.0 | 0.00 | 0.00 | 0.00 | 28 | 1017.0 |
| 20260905053529 | 76 | 168 | 4.0 | 7.0 | 0.00 | 0.00 | 0.00 | 27 | 1017.0 |
| 20260905053029 | 76 | 137 | 2.0 | 6.0 | 0.00 | 0.00 | 0.00 | 27 | 1017.0 |
| 20260905052529 | 76 | 154 | 8.0 | 12.0 | 0.00 | 0.00 | 0.00 | 27 | 1017.0 |
| 20260905052029 | 76 | 160 | 5.0 | 11.0 | 0.00 | 0.00 | 0.00 | 27 | 1017.0 |
| 20260905051529 | 76 | 155 | 11.0 | 14.0 | 0.00 | 0.00 | 0.00 | 28 | 1017.0 |
| 20260905051030 | 77 | 155 | 10.0 | 13.0 | 0.00 | 0.00 | 0.00 | 27 | 1017.0 |
| 20260905050529 | 76 | 140 | 7.0 | 12.0 | 0.00 | 0.00 | 0.00 | 26 | 1017.0 |
| 20260905050029 | 76 | 170 | 9.0 | 13.0 | 0.00 | 0.00 | 0.00 | 28 | 1017.0 |
| 20260905045529 | 76 | 147 | 5.0 | 11.0 | 0.00 | 0.00 | 0.00 | 28 | 1017.0 |
| 20260905045029 | 76 | 141 | 5.0 | 8.0 | 0.00 | 0.00 | 0.00 | 29 | 1017.0 |
| 20260905044529 | 76 | 144 | 7.0 | 10.0 | 0.00 | 0.00 | 0.00 | 29 | 1017.0 |
| 20260905044029 | 76 | 144 | 7.0 | 9.0 | 0.00 | 0.00 | 0.00 | 31 | 1017.0 |
| 20260905043529 | 76 | 157 | 6.0 | 9.0 | 0.00 | 0.00 | 0.00 | 31 | 1017.0 |
| 20260905043029 | 76 | 122 | 5.0 | 9.0 | 0.00 | 0.00 | 0.00 | 32 | 1016.0 |
| 20260905042529 | 76 | 136 | 7.0 | 10.0 | 0.00 | 0.00 | 0.00 | 32 | 1016.0 |
| 20260905042030 | 76 | 134 | 4.0 | 7.0 | 0.00 | 0.00 | 0.00 | 33 | 1016.0 |
| 20260905041530 | 75 | 136 | 5.0 | 9.0 | 0.00 | 0.00 | 0.00 | 34 | 1016.0 |
| 20260905041030 | 75 | 148 | 3.0 | 7.0 | 0.00 | 0.00 | 0.00 | 35 | 1016.0 |
| 20260905040530 | 75 | 113 | 4.0 | 4.0 | 0.00 | 0.00 | 0.00 | 34 | 1016.0 |
| 20260905040029 | 75 | 38 | 3.0 | 6.0 | 0.00 | 0.00 | 0.00 | 34 | 1016.0 |
| 20260905035531 | 75 | 105 | 4.0 | 5.0 | 0.00 | 0.00 | 0.00 | 34 | 1016.0 |
| 20260905035029 | 76 | 49 | 4.0 | 5.0 | 0.00 | 0.00 | 0.00 | 34 | 1016.0 |
| 20260905034529 | 76 | 21 | 4.0 | 4.0 | 0.00 | 0.00 | 0.00 | 33 | 1016.0 |
| 20260905034030 | 77 | 18 | 2.0 | 6.0 | 0.00 | 0.00 | 0.00 | 30 | 1016.0 |
| 20260905033529 | 77 | 76 | 3.0 | 4.0 | 0.00 | 0.00 | 0.00 | 27 | 1016.0 |
| 20260905033029 | 77 | 360 | 0.0 | 0.0 | 0.00 | 0.00 | 0.00 | 27 | 1016.0 |
| 20260905032529 | 78 | 360 | 0.0 | 0.0 | 0.00 | 0.00 | 0.00 | 27 | 1016.0 |
| 20260905032029 | 78 | 360 | 0.0 | 0.0 | 0.00 | 0.00 | 0.00 | 27 | 1016.0 |
| 20260905031529 | 78 | 353 | 1.0 | 3.0 | 0.00 | 0.00 | 0.00 | 27 | 1016.0 |
| 20260905031029 | 78 | 301 | 0.0 | 0.0 | 0.00 | 0.00 | 0.00 | 26 | 1016.0 |
| 20260905030529 | 79 | 156 | 5.0 | 6.0 | 0.00 | 0.00 | 0.00 | 27 | 1015.0 |
| 20260905030029 | 79 | 323 | 1.0 | 2.0 | 0.00 | 0.00 | 0.00 | 28 | 1015.0 |
| 20260905025537 | 79 | 146 | 2.0 | 6.0 | 0.00 | 0.00 | 0.00 | 27 | 1015.0 |
| 20260905025029 | 80 | 141 | 4.0 | 8.0 | 0.00 | 0.00 | 0.00 | 26 | 1015.0 |
| 20260905024531 | 80 | 140 | 5.0 | 9.0 | 0.00 | 0.00 | 0.00 | 25 | 1015.0 |
| 20260905024029 | 80 | 162 | 5.0 | 7.0 | 0.00 | 0.00 | 0.00 | 24 | 1015.0 |
| 20260905023529 | 80 | 164 | 6.0 | 12.0 | 0.00 | 0.00 | 0.00 | 24 | 1015.0 |
| 20260905023030 | 80 | 155 | 4.0 | 9.0 | 0.00 | 0.00 | 0.00 | 24 | 1015.0 |
| 20260905022529 | 81 | 24 | 4.0 | 8.0 | 0.00 | 0.00 | 0.00 | 24 | 1015.0 |
| 20260905022029 | 81 | 131 | 6.0 | 10.0 | 0.00 | 0.00 | 0.00 | 23 | 1015.0 |
| 20260905021529 | 81 | 49 | 1.0 | 4.0 | 0.00 | 0.00 | 0.00 | 23 | 1015.0 |
| 20260905021029 | 81 | 151 | 1.0 | 3.0 | 0.00 | 0.00 | 0.00 | 22 | 1015.0 |
| 20260905020529 | 81 | 156 | 4.0 | 5.0 | 0.00 | 0.00 | 0.00 | 22 | 1015.0 |
| 20260905020031 | 82 | 117 | 3.0 | 4.0 | 0.00 | 0.00 | 0.00 | 22 | 1015.0 |
| 20260905015529 | 82 | 6 | 0.0 | 2.0 | 0.00 | 0.00 | 0.00 | 22 | 1015.0 |
| 20260905015030 | 82 | 154 | 4.0 | 7.0 | 0.00 | 0.00 | 0.00 | 22 | 1014.0 |
| 20260905014529 | 83 | 1 | 2.0 | 4.0 | 0.00 | 0.00 | 0.00 | 21 | 1015.0 |
| 20260905014029 | 83 | 147 | 3.0 | 4.0 | 0.00 | 0.00 | 0.00 | 21 | 1015.0 |
| 20260905013529 | 83 | 14 | 1.0 | 3.0 | 0.00 | 0.00 | 0.00 | 21 | 1015.0 |
| 20260905013029 | 83 | 160 | 1.0 | 4.0 | 0.00 | 0.00 | 0.00 | 20 | 1014.0 |
| 20260905012529 | 84 | 165 | 1.0 | 4.0 | 0.00 | 0.00 | 0.00 | 21 | 1014.0 |
| 20260905012029 | 84 | 55 | 1.0 | 3.0 | 0.00 | 0.00 | 0.00 | 21 | 1014.0 |
| 20260905011529 | 84 | 30 | 3.0 | 4.0 | 0.00 | 0.00 | 0.00 | 20 | 1014.0 |
| 20260905011029 | 84 | 306 | 0.0 | 0.0 | 0.00 | 0.00 | 0.00 | 20 | 1014.0 |
| 20260905010529 | 84 | 194 | 5.0 | 5.0 | 0.00 | 0.00 | 0.00 | 20 | 1014.0 |
| 20260905010029 | 84 | 183 | 3.0 | 5.0 | 0.00 | 0.00 | 0.00 | 20 | 1014.0 |
| 20260905005529 | 85 | 49 | 2.0 | 4.0 | 0.00 | 0.00 | 0.00 | 20 | 1014.0 |
| 20260905005029 | 85 | 111 | 2.0 | 3.0 | 0.00 | 0.00 | 0.00 | 20 | 1014.0 |
| 20260905004530 | 85 | 239 | 2.0 | 4.0 | 0.00 | 0.00 | 0.00 | 18 | 1014.0 |
| 20260905004029 | 85 | 136 | 2.0 | 5.0 | 0.00 | 0.00 | 0.00 | 19 | 1014.0 |
| 20260905003529 | 85 | 104 | 5.0 | 9.0 | 0.00 | 0.00 | 0.00 | 19 | 1014.0 |
| 20260905003029 | 86 | 132 | 1.0 | 2.0 | 0.00 | 0.00 | 0.00 | 19 | 1014.0 |
| 20260905002529 | 86 | 46 | 1.0 | 3.0 | 0.00 | 0.00 | 0.00 | 19 | 1014.0 |
| 20260905002029 | 86 | 40 | 1.0 | 3.0 | 0.00 | 0.00 | 0.00 | 18 | 1014.0 |
| 20260905001529 | 86 | 100 | 4.0 | 7.0 | 0.00 | 0.00 | 0.00 | 18 | 1014.0 |
| 20260905001029 | 85 | 113 | 1.0 | 4.0 | 0.00 | 0.00 | 0.00 | 18 | 1014.0 |
| 20260905000529 | 85 | 45 | 1.0 | 3.0 | 0.00 | 0.00 | 0.00 | 19 | 1015.0 |
| 20260905000031 | 85 | 154 | 4.0 | 7.0 | 0.00 | 0.00 | 0.00 | 18 | 1015.0 |
| 20260904235531 | 85 | 156 | 6.0 | 14.0 | 0.00 | 0.00 | 0.00 | 17 | 1015.0 |
| 20260904235031 | 85 | 2 | 4.0 | 7.0 | 0.00 | 0.00 | 0.00 | 17 | 1015.0 |
| 20260904234529 | 85 | 162 | 9.0 | 13.0 | 0.00 | 0.00 | 0.00 | 17 | 1015.0 |
| 20260904234029 | 85 | 53 | 3.0 | 6.0 | 0.00 | 0.00 | 0.00 | 17 | 1015.0 |
| 20260904233530 | 85 | 139 | 9.0 | 16.0 | 0.00 | 0.00 | 0.00 | 17 | 1015.0 |
| 20260904233030 | 85 | 136 | 10.0 | 13.0 | 0.00 | 0.00 | 0.00 | 15 | 1015.0 |
| 20260904232529 | 85 | 148 | 8.0 | 13.0 | 0.00 | 0.00 | 0.00 | 15 | 1015.0 |
| 20260904232029 | 86 | 150 | 9.0 | 13.0 | 0.00 | 0.00 | 0.00 | 15 | 1015.0 |
| 20260904231530 | 85 | 138 | 3.0 | 9.0 | 0.00 | 0.00 | 0.00 | 15 | 1015.0 |
| 20260904231030 | 85 | 142 | 16.0 | 19.0 | 0.00 | 0.00 | 0.00 | 14 | 1015.0 |
| 20260904230529 | 85 | 156 | 9.0 | 15.0 | 0.00 | 0.00 | 0.00 | 15 | 1015.0 |
| 20260904230029 | 86 | 140 | 9.0 | 21.0 | 0.00 | 0.00 | 0.00 | 15 | 1015.0 |
| 20260904225529 | 86 | 129 | 11.0 | 20.0 | 0.00 | 0.00 | 0.00 | 15 | 1015.0 |
| 20260904225029 | 86 | 138 | 8.0 | 18.0 | 0.00 | 0.00 | 0.00 | 15 | 1015.0 |
| 20260904224529 | 85 | 107 | 5.0 | 7.0 | 0.00 | 0.00 | 0.00 | 16 | 1015.0 |
| 20260904224029 | 85 | 98 | 4.0 | 7.0 | 0.00 | 0.00 | 0.00 | 16 | 1015.0 |
| 20260904223529 | 85 | 133 | 3.0 | 10.0 | 0.00 | 0.00 | 0.00 | 16 | 1015.0 |
| 20260904223029 | 85 | 149 | 13.0 | 21.0 | 0.00 | 0.00 | 0.00 | 15 | 1015.0 |
| 20260904222529 | 85 | 117 | 5.0 | 9.0 | 0.00 | 0.00 | 0.00 | 15 | 1015.0 |
| 20260904222029 | 85 | 159 | 9.0 | 16.0 | 0.00 | 0.00 | 0.00 | 15 | 1015.0 |
| 20260904221529 | 85 | 171 | 4.0 | 9.0 | 0.00 | 0.00 | 0.00 | 15 | 1015.0 |
| 20260904221029 | 85 | 170 | 11.0 | 16.0 | 0.00 | 0.00 | 0.00 | 14 | 1015.0 |
| 20260904220530 | 85 | 142 | 7.0 | 11.0 | 0.00 | 0.00 | 0.00 | 16 | 1015.0 |
| 20260904220029 | 85 | 150 | 6.0 | 13.0 | 0.00 | 0.00 | 0.00 | 16 | 1015.0 |
| 20260904215530 | 85 | 145 | 9.0 | 16.0 | 0.00 | 0.00 | 0.00 | 15 | 1015.0 |
| 20260904215029 | 85 | 98 | 5.0 | 9.0 | 0.00 | 0.00 | 0.00 | 17 | 1015.0 |
| 20260904214529 | 85 | 163 | 7.0 | 13.0 | 0.00 | 0.00 | 0.00 | 17 | 1015.0 |
| 20260904214029 | 85 | 146 | 5.0 | 12.0 | 0.00 | 0.00 | 0.00 | 16 | 1015.0 |
| 20260904213529 | 84 | 138 | 10.0 | 15.0 | 0.00 | 0.00 | 0.00 | 16 | 1016.0 |
| 20260904213029 | 84 | 142 | 7.0 | 17.0 | 0.00 | 0.00 | 0.00 | 16 | 1016.0 |
| 20260904212529 | 84 | 151 | 13.0 | 22.0 | 0.00 | 0.00 | 0.00 | 15 | 1016.0 |
| 20260904212030 | 83 | 139 | 11.0 | 17.0 | 0.00 | 0.00 | 0.00 | 17 | 1016.0 |
| 20260904211529 | 83 | 158 | 13.0 | 17.0 | 0.00 | 0.00 | 0.00 | 16 | 1016.0 |
| 20260904211030 | 84 | 144 | 13.0 | 17.0 | 0.00 | 0.00 | 0.00 | 16 | 1016.0 |
| 20260904210529 | 83 | 147 | 10.0 | 18.0 | 0.00 | 0.00 | 0.00 | 16 | 1016.0 |
| 20260904210030 | 83 | 146 | 7.0 | 13.0 | 0.00 | 0.00 | 0.00 | 18 | 1016.0 |
| 20260904205529 | 83 | 144 | 11.0 | 17.0 | 0.00 | 0.00 | 0.00 | 16 | 1016.0 |
| 20260904205029 | 83 | 135 | 14.0 | 18.0 | 0.00 | 0.00 | 0.00 | 17 | 1016.0 |
| 20260904204534 | 82 | 137 | 7.0 | 10.0 | 0.00 | 0.00 | 0.00 | 19 | 1016.0 |
| 20260904204030 | 83 | 141 | 12.0 | 17.0 | 0.00 | 0.00 | 0.00 | 18 | 1016.0 |
| 20260904203529 | 83 | 148 | 7.0 | 21.0 | 0.00 | 0.00 | 0.00 | 19 | 1016.0 |
| 20260904203029 | 82 | 201 | 5.0 | 12.0 | 0.00 | 0.00 | 0.00 | 19 | 1016.0 |
| 20260904202529 | 82 | 137 | 12.0 | 21.0 | 0.00 | 0.00 | 0.00 | 19 | 1016.0 |
| 20260904202030 | 82 | 156 | 13.0 | 20.0 | 0.00 | 0.00 | 0.00 | 19 | 1016.0 |
| 20260904201529 | 82 | 142 | 13.0 | 20.0 | 0.00 | 0.00 | 0.00 | 19 | 1016.0 |
| 20260904201029 | 82 | 141 | 17.0 | 27.0 | 0.00 | 0.00 | 0.00 | 20 | 1016.0 |
| 20260904200529 | 82 | 144 | 6.0 | 13.0 | 0.00 | 0.00 | 0.00 | 21 | 1016.0 |
| 20260904200029 | 81 | 170 | 9.0 | 16.0 | 0.00 | 0.00 | 0.00 | 21 | 1016.0 |
| 20260904195530 | 81 | 142 | 11.0 | 14.0 | 0.00 | 0.00 | 0.00 | 20 | 1016.0 |
| 20260904195030 | 81 | 151 | 8.0 | 12.0 | 0.00 | 0.00 | 0.00 | 21 | 1017.0 |
| 20260904194532 | 81 | 141 | 12.0 | 19.0 | 0.00 | 0.00 | 0.00 | 21 | 1017.0 |
| 20260904194030 | 81 | 144 | 12.0 | 24.0 | 0.00 | 0.00 | 0.00 | 21 | 1017.0 |
| 20260904193529 | 80 | 149 | 9.0 | 12.0 | 0.00 | 0.00 | 0.00 | 22 | 1017.0 |
| 20260904193029 | 80 | 144 | 17.0 | 26.0 | 0.00 | 0.00 | 0.00 | 21 | 1017.0 |
| 20260904192533 | 80 | 150 | 7.0 | 14.0 | 0.00 | 0.00 | 0.00 | 24 | 1017.0 |
| 20260904192033 | 80 | 146 | 9.0 | 17.0 | 0.00 | 0.00 | 0.00 | 21 | 1017.0 |
| 20260904191530 | 80 | 142 | 14.0 | 19.0 | 0.00 | 0.00 | 0.00 | 23 | 1017.0 |
| 20260904191029 | 79 | 151 | 9.0 | 19.0 | 0.00 | 0.00 | 0.00 | 24 | 1017.0 |
| 20260904190529 | 79 | 148 | 13.0 | 18.0 | 0.00 | 0.00 | 0.00 | 24 | 1017.0 |
| 20260904190029 | 79 | 142 | 13.0 | 25.0 | 0.00 | 0.00 | 0.00 | 24 | 1017.0 |
| 20260904185529 | 79 | 143 | 8.0 | 12.0 | 0.00 | 0.00 | 0.00 | 24 | 1017.0 |
| 20260904185029 | 78 | 159 | 8.0 | 14.0 | 0.00 | 0.00 | 0.00 | 23 | 1017.0 |
| 20260904184529 | 78 | 146 | 14.0 | 19.0 | 0.00 | 0.00 | 0.00 | 24 | 1017.0 |
| 20260904184029 | 79 | 145 | 12.0 | 20.0 | 0.00 | 0.00 | 0.00 | 25 | 1018.0 |
| 20260904183530 | 78 | 148 | 9.0 | 16.0 | 0.00 | 0.00 | 0.00 | 25 | 1018.0 |
| 20260904183031 | 78 | 133 | 11.0 | 17.0 | 0.00 | 0.00 | 0.00 | 23 | 1018.0 |
| 20260904182529 | 78 | 151 | 11.0 | 19.0 | 0.00 | 0.00 | 0.00 | 26 | 1018.0 |
| 20260904182030 | 78 | 145 | 15.0 | 23.0 | 0.00 | 0.00 | 0.00 | 26 | 1018.0 |
| 20260904181529 | 78 | 154 | 12.0 | 16.0 | 0.00 | 0.00 | 0.00 | 25 | 1018.0 |
| 20260904181029 | 78 | 159 | 15.0 | 19.0 | 0.00 | 0.00 | 0.00 | 27 | 1018.0 |
| 20260904180529 | 78 | 131 | 13.0 | 17.0 | 0.00 | 0.00 | 0.00 | 27 | 1018.0 |
| 20260904180029 | 78 | 131 | 11.0 | 17.0 | 0.00 | 0.00 | 0.00 | 28 | 1018.0 |
| 20260904175529 | 77 | 146 | 7.0 | 14.0 | 0.00 | 0.00 | 0.00 | 28 | 1018.0 |
| 20260904175030 | 77 | 140 | 12.0 | 15.0 | 0.00 | 0.00 | 0.00 | 27 | 1018.0 |
| 20260904174533 | 77 | 153 | 10.0 | 16.0 | 0.00 | 0.00 | 0.00 | 28 | 1018.0 |
| 20260904174029 | 77 | 138 | 8.0 | 15.0 | 0.00 | 0.00 | 0.00 | 27 | 1018.0 |
| 20260904173529 | 77 | 150 | 9.0 | 13.0 | 0.00 | 0.00 | 0.00 | 27 | 1018.0 |
| 20260904173030 | 77 | 146 | 12.0 | 19.0 | 0.00 | 0.00 | 0.00 | 27 | 1018.0 |
| 20260904172531 | 76 | 147 | 6.0 | 17.0 | 0.00 | 0.00 | 0.00 | 28 | 1018.0 |
| 20260904172029 | 76 | 154 | 10.0 | 18.0 | 0.00 | 0.00 | 0.00 | 28 | 1018.0 |
| 20260904171531 | 76 | 150 | 10.0 | 15.0 | 0.00 | 0.00 | 0.00 | 28 | 1018.0 |
| 20260904171030 | 76 | 164 | 11.0 | 18.0 | 0.00 | 0.00 | 0.00 | 28 | 1018.0 |
| 20260904170532 | 76 | 159 | 11.0 | 18.0 | 0.00 | 0.00 | 0.00 | 27 | 1018.0 |
| 20260904170030 | 76 | 143 | 11.0 | 17.0 | 0.00 | 0.00 | 0.00 | 26 | 1018.0 |
| 20260904165529 | 75 | 162 | 9.0 | 13.0 | 0.00 | 0.00 | 0.00 | 26 | 1018.0 |
| 20260904165029 | 75 | 149 | 8.0 | 15.0 | 0.00 | 0.00 | 0.00 | 27 | 1018.0 |
| 20260904164529 | 74 | 125 | 8.0 | 12.0 | 0.00 | 0.00 | 0.00 | 27 | 1018.0 |
| 20260904164029 | 74 | 157 | 12.0 | 15.0 | 0.00 | 0.00 | 0.00 | 28 | 1018.0 |
| 20260904163529 | 74 | 153 | 12.0 | 17.0 | 0.00 | 0.00 | 0.00 | 28 | 1018.0 |
| 20260904163030 | 73 | 150 | 11.0 | 15.0 | 0.00 | 0.00 | 0.00 | 29 | 1018.0 |
| 20260904162529 | 73 | 142 | 6.0 | 10.0 | 0.00 | 0.00 | 0.00 | 30 | 1018.0 |
| 20260904162029 | 73 | 141 | 5.0 | 8.0 | 0.00 | 0.00 | 0.00 | 32 | 1018.0 |
| 20260904161531 | 72 | 152 | 9.0 | 14.0 | 0.00 | 0.00 | 0.00 | 29 | 1018.0 |
| 20260904161030 | 71 | 127 | 6.0 | 10.0 | 0.00 | 0.00 | 0.00 | 32 | 1018.0 |
| 20260904160529 | 71 | 119 | 7.0 | 9.0 | 0.00 | 0.00 | 0.00 | 34 | 1018.0 |
| 20260904160030 | 70 | 157 | 9.0 | 11.0 | 0.00 | 0.00 | 0.00 | 35 | 1018.0 |
| 20260904155531 | 70 | 156 | 11.0 | 13.0 | 0.00 | 0.00 | 0.00 | 35 | 1018.0 |
| 20260904155029 | 69 | 150 | 9.0 | 12.0 | 0.00 | 0.00 | 0.00 | 37 | 1018.0 |
| 20260904154529 | 69 | 147 | 12.0 | 15.0 | 0.00 | 0.00 | 0.00 | 41 | 1018.0 |
| 20260904154029 | 69 | 138 | 7.0 | 9.0 | 0.00 | 0.00 | 0.00 | 46 | 1018.0 |
| 20260904153531 | 69 | 136 | 8.0 | 9.0 | 0.00 | 0.00 | 0.00 | 43 | 1018.0 |
| 20260904153031 | 69 | 147 | 4.0 | 8.0 | 0.00 | 0.00 | 0.00 | 42 | 1018.0 |
| 20260904152529 | 69 | 146 | 6.0 | 7.0 | 0.00 | 0.00 | 0.00 | 40 | 1018.0 |
| 20260904152029 | 69 | 155 | 1.0 | 4.0 | 0.00 | 0.00 | 0.00 | 39 | 1018.0 |
| 20260904151530 | 69 | 146 | 5.0 | 6.0 | 0.00 | 0.00 | 0.00 | 38 | 1018.0 |
| 20260904151029 | 70 | 159 | 5.0 | 8.0 | 0.00 | 0.00 | 0.00 | 36 | 1018.0 |
| 20260904150529 | 71 | 154 | 3.0 | 4.0 | 0.00 | 0.00 | 0.00 | 32 | 1018.0 |
| 20260904150031 | 71 | 150 | 0.0 | 1.0 | 0.00 | 0.00 | 0.00 | 30 | 1018.0 |
| 20260904145530 | 71 | 360 | 0.0 | 0.0 | 0.00 | 0.00 | 0.00 | 27 | 1018.0 |
| 20260904145029 | 70 | 156 | 3.0 | 4.0 | 0.00 | 0.00 | 0.00 | 25 | 1018.0 |
| 20260904144528 | 70 | 131 | 3.0 | 4.0 | 0.00 | 0.00 | 0.00 | 25 | 1018.0 |
| 20260904144029 | 70 | 77 | 3.0 | 4.0 | 0.00 | 0.00 | 0.00 | 25 | 1018.0 |
| 20260904143530 | 69 | 162 | 2.0 | 4.0 | 0.00 | 0.00 | 0.00 | 27 | 1018.0 |
| 20260904143032 | 69 | 150 | 6.0 | 8.0 | 0.00 | 0.00 | 0.00 | 25 | 1018.0 |
| 20260904142529 | 69 | 83 | 0.0 | 1.0 | 0.00 | 0.00 | 0.00 | 27 | 1018.0 |
| 20260904142030 | 69 | 81 | 1.0 | 3.0 | 0.00 | 0.00 | 0.00 | 26 | 1018.0 |
| 20260904141529 | 68 | 183 | 2.0 | 3.0 | 0.00 | 0.00 | 0.00 | 28 | 1018.0 |
| 20260904141029 | 67 | 17 | 6.0 | 7.0 | 0.00 | 0.00 | 0.00 | 31 | 1018.0 |
| 20260904140533 | 65 | 276 | 3.0 | 4.0 | 0.00 | 0.00 | 0.00 | 29 | 1018.0 |
| 20260904140033 | 64 | 324 | 4.0 | 4.0 | 0.00 | 0.00 | 0.00 | 31 | 1018.0 |
| 20260904135530 | 62 | 7 | 3.0 | 5.0 | 0.00 | 0.00 | 0.00 | 35 | 1018.0 |
| 20260904135029 | 62 | 59 | 4.0 | 4.0 | 0.00 | 0.00 | 0.00 | 38 | 1018.0 |
| 20260904134533 | 61 | 60 | 3.0 | 4.0 | 0.00 | 0.00 | 0.00 | 37 | 1018.0 |
| 20260904134030 | 61 | 66 | 6.0 | 8.0 | 0.00 | 0.00 | 0.00 | 36 | 1017.0 |
| 20260904133529 | 61 | 68 | 3.0 | 4.0 | 0.00 | 0.00 | 0.00 | 36 | 1017.0 |
| 20260904133030 | 61 | 79 | 3.0 | 5.0 | 0.00 | 0.00 | 0.00 | 35 | 1017.0 |
| 20260904132532 | 61 | 91 | 0.0 | 3.0 | 0.00 | 0.00 | 0.00 | 33 | 1017.0 |
| 20260904132031 | 62 | 69 | 4.0 | 7.0 | 0.00 | 0.00 | 0.00 | 33 | 1017.0 |
| 20260904131529 | 62 | 138 | 7.0 | 12.0 | 0.00 | 0.00 | 0.00 | 30 | 1017.0 |
| 20260904131029 | 62 | 52 | 0.0 | 3.0 | 0.00 | 0.00 | 0.00 | 31 | 1017.0 |
| 20260904130530 | 62 | 24 | 1.0 | 4.0 | 0.00 | 0.00 | 0.00 | 31 | 1017.0 |
| 20260904130030 | 62 | 47 | 0.0 | 0.0 | 0.00 | 0.00 | 0.00 | 32 | 1017.0 |
| 20260904125531 | 63 | 360 | 0.0 | 0.0 | 0.00 | 0.00 | 0.00 | 31 | 1017.0 |